{"data":{"norad_id":54153,"intl_designator":"2022-139D","name":"SKIF-D","alt_names":[],"object_type":"PAYLOAD","status":"ACTIVE","operator":null,"country":"CIS","launch_date":"2022-10-22","launch_site_code":"VOSTO","launch_vehicle":null,"mission":null,"orbit_class":"UNKNOWN","rcs_meters":null,"size_class":null,"mass_kg":null,"dimensions":null,"purposes":[],"wikipedia_slug":null,"has_3d_model":false,"image_url":null,"decayed_at":null,"tle_current":{"epoch":"2026-05-24T06:34:04.657728Z","epoch_age_seconds":138072,"freshness":"FRESH","line1":"1 54153U 22139D   26144.27366502  .00000017  00000+0  00000+0 0  9999","line2":"2 54153  89.9543  96.6746 0007377 209.4053 150.5897  5.00435639 62911","mean_motion":5.00435639,"eccentricity":0.0007377,"inclination_deg":89.9543,"raan_deg":96.6746,"arg_perigee_deg":209.4053,"mean_anomaly_deg":150.5897,"bstar":0,"rev_number":6291,"period_min":287.74929037378,"perigee_km":8049.0786524678,"apogee_km":8070.3802806526,"semimajor_km":14437.86646656,"source":"CELESTRAK","updated_at":"2026-05-25T13:37:58.619738Z"}}}